Regional Weather Roundup
Issued by NWS

Home | Current Version | Previous Version | Text Only | Print | Product List | Glossary Off
Versions: 1 2 3 4 5 6 7 8 9 10 11 12 13 14 15 16 17 18 19 20 21 22 23 24 25 26 27 28 29 30 31 32 33 34 35 36 37 38 39 40 41 42 43 44 45 46 47 48 49 50

000
ASUS43 KFSD 211310
RWRSD

WEATHER ROUNDUP FOR SOUTH DAKOTA
NATIONAL WEATHER SERVICE SIOUX FALLS SD
700 AM CST SUN DEC 21 2014

NOTE: "FAIR" INDICATES FEW OR NO CLOUDS BELOW 12,000 FEET WITH NO
SIGNIFICANT WEATHER AND/OR OBSTRUCTIONS TO VISIBILITY.


SDZ001>005-009-010-012>017-211400-
NORTHWEST AND NORTH CENTRAL SOUTH DAKOTA

CITY           SKY/WX    TMP DP  RH WIND       PRES   REMARKS
BUFFALO          N/A     26  20  77 S8        29.47F WCI  18
FAITH            N/A     24  21  88 S13       29.56F WCI  12
MOBRIDGE       CLEAR     23  20  88 SE8       29.60F WCI  14
$$

SDZ012>016-024>037-041>051-057-063-072>074-211400-
SOUTHWEST AND SOUTH CENTRAL SOUTH DAKOTA

CITY           SKY/WX    TMP DP  RH WIND       PRES   REMARKS
RAPID CTY ARPT CLEAR     23  19  85 CALM      29.56F
PIERRE         CLEAR     21  19  92 SE8       29.64F WCI  11
CUSTER         PTCLDY    27  21  78 W10       29.57F WCI  17
ELLSWORTH AFB  CLEAR     31  22  68 S6        29.55F WCI  25
PHILIP         CLEAR     16  14  92 W3        29.60F
PINE RIDGE     CLEAR     27  21  78 SW6       29.63F WCI  20
SPEARFISH      FAIR      36  19  51 NW3       29.54F
WINNER         FAIR      36  25  64 S8        29.67F
$$

SDZ004>011-016>023-039-040-211400-
NORTHEAST SOUTH DAKOTA

CITY           SKY/WX    TMP DP  RH WIND       PRES   REMARKS
ABERDEEN       CLOUDY    31  29  92 S10       29.73F FOG     WCI  22
WATERTOWN      CLOUDY    29  29 100 S6        29.75F FOG     WCI  23
SISSETON         N/A     30  29  96 S8        29.77F WCI  22
$$

SDZ017-020-022-023-036>040-048>070-211400-
SOUTHEAST SOUTH DAKOTA

CITY           SKY/WX    TMP DP  RH WIND       PRES   REMARKS
SIOUX FALLS    FOG       32  32 100 S10       29.80F VSB 1   WCI  24
HURON          FOG       30  30 100 S8        29.75F VSB 1   WCI  22
CHAMBERLAIN    MOCLDY    25  24  96 SE9       29.69F FOG     WCI  15
MITCHELL       FOG       31  31 100 SE10      29.76F VSB 3/4 WCI  22
YANKTON        CLOUDY    32  30  93 S8        29.80F WCI  25
$$

ABBREVIATIONS USED IN REMARKS
   TC - TEMPERATURE IN CELSIUS
  WCI - WIND CHILL INDEX
   HX - HEAT INDEX
  VSB - VISIBILITY



USA.gov is the U.S. government's official web portal to all federal, state and local government web resources and services.